When you browse on this site, cookies collect data to enhance your experience and personalize the content and advertising you see.
Visit our Privacy Policy to learn more. By continuing to use the site, you agree to this use of cookies and data.
  • In Portugal
  • List of Countries
  • For 7 days
  • Water Temperature
  • Satellite Maps
  • Weather Map
  • Weather Widgets
  • user-avatar
    Login

    Hourly Weather Kyrova

    Today, 23 July, Tuesday

    Time Temperature Precipitation Wind Pressure Humidity
    00:00 +14°C° 0 mm 1 mps 737 mmHg 90%
    01:00 +13°C° 0 mm 1 mps 737 mmHg 92%
    02:00 +12°C° 0 mm 0 mps 737 mmHg 92%
    03:00 +12°C° 0 mm 0 mps 737 mmHg 93%
    04:00 +12°C° 0 mm 0 mps 737 mmHg 93%
    05:00 +13°C° 0 mm 0 mps 737 mmHg 88%
    06:00 +15°C° 0 mm 0 mps 738 mmHg 82%
    07:00 +17°C° 0 mm 0 mps 738 mmHg 76%
    08:00 +18°C° 0 mm 0 mps 738 mmHg 69%
    09:00 +22°C° 0 mm 1 mps 738 mmHg 63%
    10:00 +24°C° 0 mm 1 mps 738 mmHg 56%
    11:00 +24°C° 0.1 mm 1 mps 738 mmHg 56%
    12:00 +24°C° 0.1 mm 2 mps 738 mmHg 56%
    13:00 +25°C° 0.1 mm 2 mps 739 mmHg 56%
    14:00 +24°C° 0.5 mm 2 mps 739 mmHg 65%
    15:00 +23°C° 0.5 mm 2 mps 739 mmHg 75%
    16:00 +21°C° 0.5 mm 2 mps 739 mmHg 84%
    17:00 +21°C° 0.2 mm 1 mps 739 mmHg 86%
    18:00 +21°C° 0.2 mm 1 mps 739 mmHg 87%
    19:00 +18°C° 0.2 mm 0 mps 739 mmHg 89%
    20:00 +17°C° 0.2 mm 0 mps 740 mmHg 90%
    21:00 +17°C° 0.2 mm 0 mps 740 mmHg 91%
    22:00 +18°C° 0.2 mm 1 mps 740 mmHg 92%
    23:00 +18°C° 0.1 mm 1 mps 740 mmHg 93%

    Tomorrow, 24 July, Wednesday

    Time Temperature Precipitation Wind Pressure Humidity
    00:00 +16°C° 0.1 mm 1 mps 740 mmHg 94%
    01:00 +16°C° 0.1 mm 1 mps 741 mmHg 95%
    02:00 +15°C° 0 mm 1 mps 741 mmHg 95%
    03:00 +15°C° 0 mm 1 mps 741 mmHg 95%
    04:00 +14°C° 0 mm 1 mps 742 mmHg 94%
    05:00 +15°C° 0 mm 1 mps 742 mmHg 91%
    06:00 +18°C° 0 mm 1 mps 742 mmHg 88%
    07:00 +19°C° 0 mm 1 mps 742 mmHg 84%
    08:00 +22°C° 0 mm 1 mps 743 mmHg 71%
    09:00 +24°C° 0 mm 1 mps 743 mmHg 58%
    10:00 +27°C° 0 mm 1 mps 743 mmHg 45%
    11:00 +27°C° 0 mm 1 mps 743 mmHg 43%
    12:00 +27°C° 0 mm 1 mps 743 mmHg 41%
    13:00 +28°C° 0 mm 1 mps 743 mmHg 39%
    14:00 +28°C° 0 mm 1 mps 743 mmHg 42%
    15:00 +27°C° 0 mm 1 mps 743 mmHg 45%
    16:00 +27°C° 0 mm 1 mps 744 mmHg 48%
    17:00 +26°C° 0 mm 1 mps 744 mmHg 54%
    18:00 +25°C° 0 mm 1 mps 744 mmHg 61%
    19:00 +24°C° 0 mm 1 mps 744 mmHg 68%
    20:00 +23°C° 0 mm 1 mps 744 mmHg 68%
    21:00 +19°C° 0 mm 0 mps 744 mmHg 68%
    22:00 +18°C° 0 mm 0 mps 745 mmHg 68%
    23:00 +18°C° 0 mm 0 mps 745 mmHg 71%

    Day after tomorrow, 25 July, Thursday

    Time Temperature Precipitation Wind Pressure Humidity
    00:00 +17°C° 0 mm 0 mps 745 mmHg 73%
    01:00 +16°C° 0 mm 0 mps 745 mmHg 75%
    02:00 +16°C° 0 mm 0 mps 745 mmHg 77%
    03:00 +15°C° 0 mm 0 mps 746 mmHg 78%
    04:00 +15°C° 0 mm 0 mps 746 mmHg 80%
    05:00 +16°C° 0 mm 0 mps 746 mmHg 76%
    06:00 +18°C° 0 mm 0 mps 746 mmHg 72%
    07:00 +20°C° 0 mm 0 mps 746 mmHg 68%
    08:00 +22°C° 0 mm 0 mps 746 mmHg 62%
    09:00 +25°C° 0 mm 1 mps 747 mmHg 56%
    10:00 +27°C° 0 mm 1 mps 747 mmHg 50%
    11:00 +27°C° 0 mm 1 mps 747 mmHg 49%
    12:00 +28°C° 0 mm 2 mps 747 mmHg 47%
    13:00 +28°C° 0 mm 2 mps 747 mmHg 46%
    14:00 +28°C° 0 mm 2 mps 747 mmHg 47%
    15:00 +28°C° 0 mm 2 mps 746 mmHg 47%
    16:00 +28°C° 0 mm 2 mps 746 mmHg 47%
    17:00 +27°C° 0 mm 2 mps 746 mmHg 55%
    18:00 +26°C° 0 mm 2 mps 746 mmHg 63%
    19:00 +25°C° 0 mm 1 mps 746 mmHg 71%
    20:00 +23°C° 0 mm 1 mps 746 mmHg 75%
    21:00 +21°C° 0 mm 1 mps 746 mmHg 80%
    22:00 +17°C° 0 mm 0 mps 746 mmHg 84%
    23:00 +17°C° 0 mm 0 mps 746 mmHg 86%

    26 July, Friday

    Time Temperature Precipitation Wind Pressure Humidity
    00:00 +16°C° 0 mm 0 mps 746 mmHg 87%
    01:00 +16°C° 0 mm 0 mps 746 mmHg 89%
    02:00 +16°C° 0 mm 0 mps 746 mmHg 90%
    03:00 +15°C° 0 mm 0 mps 746 mmHg 91%
    04:00 +15°C° 0 mm 0 mps 746 mmHg 92%
    05:00 +17°C° 0 mm 0 mps 746 mmHg 86%
    06:00 +18°C° 0 mm 0 mps 746 mmHg 80%
    07:00 +22°C° 0 mm 1 mps 746 mmHg 74%
    08:00 +23°C° 0.1 mm 1 mps 746 mmHg 70%
    09:00 +25°C° 0.1 mm 2 mps 745 mmHg 65%
    10:00 +26°C° 0.1 mm 2 mps 745 mmHg 61%
    11:00 +27°C° 0.1 mm 3 mps 745 mmHg 56%
    12:00 +28°C° 0.1 mm 3 mps 745 mmHg 51%
    13:00 +28°C° 0.1 mm 3 mps 745 mmHg 45%
    14:00 +28°C° 0.2 mm 3 mps 744 mmHg 51%
    15:00 +27°C° 0.2 mm 3 mps 744 mmHg 56%
    16:00 +27°C° 0.2 mm 3 mps 744 mmHg 61%
    17:00 +26°C° 0.1 mm 3 mps 743 mmHg 66%
    18:00 +24°C° 0.1 mm 2 mps 743 mmHg 72%
    19:00 +23°C° 0.1 mm 2 mps 743 mmHg 77%
    20:00 +22°C° 0 mm 1 mps 743 mmHg 83%
    21:00 +20°C° 0 mm 1 mps 742 mmHg 88%
    22:00 +18°C° 0 mm 1 mps 742 mmHg 94%
    23:00 +18°C° 0 mm 1 mps 742 mmHg 94%

    27 July, Saturday

    Time Temperature Precipitation Wind Pressure Humidity
    00:00 +16°C° 0 mm 1 mps 742 mmHg 94%
    01:00 +15°C° 0 mm 1 mps 742 mmHg 94%
    02:00 +14°C° 0 mm 0 mps 742 mmHg 94%
    03:00 +14°C° 0 mm 0 mps 741 mmHg 94%
    04:00 +13°C° 0 mm 0 mps 741 mmHg 95%
    05:00 +15°C° 0 mm 0 mps 741 mmHg 90%
    06:00 +16°C° 0 mm 0 mps 741 mmHg 86%
    07:00 +20°C° 0 mm 1 mps 740 mmHg 82%
    08:00 +21°C° 0.2 mm 1 mps 740 mmHg 79%
    09:00 +22°C° 0.2 mm 1 mps 739 mmHg 77%
    10:00 +21°C° 0.2 mm 2 mps 739 mmHg 74%
    11:00 +23°C° 0.1 mm 2 mps 738 mmHg 67%
    12:00 +24°C° 0.1 mm 2 mps 738 mmHg 60%
    13:00 +25°C° 0.1 mm 2 mps 737 mmHg 52%
    14:00 +25°C° 0.3 mm 2 mps 737 mmHg 59%
    15:00 +24°C° 0.3 mm 2 mps 736 mmHg 65%
    16:00 +23°C° 0.3 mm 2 mps 735 mmHg 72%
    17:00 +22°C° 0.4 mm 1 mps 735 mmHg 77%
    18:00 +22°C° 0.4 mm 1 mps 734 mmHg 82%
    19:00 +19°C° 0.4 mm 0 mps 734 mmHg 88%
    20:00 +19°C° 0.1 mm 1 mps 733 mmHg 90%
    21:00 +18°C° 0.1 mm 1 mps 733 mmHg 92%
    22:00 +16°C° 0.1 mm 1 mps 732 mmHg 94%
    23:00 +16°C° 0.1 mm 1 mps 732 mmHg 95%

    28 July, Sunday

    Time Temperature Precipitation Wind Pressure Humidity
    00:00 +15°C° 0.1 mm 1 mps 731 mmHg 97%
    01:00 +15°C° 0.1 mm 1 mps 731 mmHg 98%
    02:00 +15°C° 0.5 mm 1 mps 731 mmHg 98%
    03:00 +14°C° 0.5 mm 0 mps 730 mmHg 98%
    04:00 +14°C° 0.5 mm 0 mps 730 mmHg 99%
    05:00 +14°C° 0.6 mm 0 mps 730 mmHg 99%
    06:00 +15°C° 0.6 mm 1 mps 730 mmHg 98%
    07:00 +14°C° 0.6 mm 1 mps 729 mmHg 98%
    08:00 +15°C° 0.6 mm 1 mps 729 mmHg 98%
    09:00 +15°C° 0.6 mm 1 mps 729 mmHg 98%
    10:00 +15°C° 0.6 mm 1 mps 729 mmHg 98%
    11:00 +15°C° 0.6 mm 1 mps 729 mmHg 97%
    12:00 +16°C° 0.6 mm 2 mps 729 mmHg 97%
    13:00 +17°C° 0.6 mm 2 mps 728 mmHg 96%
    14:00 +16°C° 1 mm 2 mps 728 mmHg 96%
    15:00 +16°C° 1 mm 3 mps 728 mmHg 95%
    16:00 +16°C° 1 mm 3 mps 728 mmHg 95%
    17:00 +15°C° 0.8 mm 4 mps 728 mmHg 96%
    18:00 +14°C° 0.8 mm 4 mps 728 mmHg 96%
    19:00 +14°C° 0.8 mm 4 mps 728 mmHg 97%
    20:00 +14°C° 0.7 mm 4 mps 727 mmHg 97%
    21:00 +13°C° 0.7 mm 4 mps 727 mmHg 96%
    22:00 +13°C° 0.7 mm 4 mps 727 mmHg 96%
    23:00 +13°C° 0.1 mm 4 mps 727 mmHg 96%
    Show more